星链-4131 (STARLINK-4131 )

导读 | 星芒AI

STARLINK-4131 是 SpaceX Starlink 项目中的一颗低轨通信卫星,属于该星座的多个发射批次之一。该卫星旨在为全球用户提供高速互联网服务,尤其关注网络覆盖不足的地区。它运行在约 550 公里的轨道高度,配备先进通信设备,支持星间链路,以减少对地面基站的依赖。STARLINK-4131 是 SpaceX 扩展其卫星互联网网络计划的一部分,有助于提升全球互联网接入的普及性和稳定性。

基本信息
目录编号:
53246
目录名称:
STARLINK-4131
国际标识:
2022-086E
轨道中心:
EARTH
卫星名称:
星链-4131
卫星全名:
星链-4131 (STARLINK-4131 )
卫星状态:
在轨 (已飞行1246 天)
发射日期:
2022-07-24 UTC
国别 :
美国 (US)
星等 :
--
轨道信息
数据来源 国际轨道数据 AOE轨道数据
星历时间 2025-12-21T04:55:40+0800
8小时前
查看轨道信息
2025-12-20T20:00:00+0800
17小时前
查看轨道信息
半长轴 6917.907km 6917.808km
偏心率 0.0001451 0.0001478
轨道倾角 53.217° 53.216°
近地点辐角 86.730° 75.783°
升交点赤经 197.948° 199.618°
平近点角 273.386° 62.767°
近地点 538.766km 538.648km
远地点 540.774km 540.694km
周期 95.438分钟 95.436分钟
每日圈数 15.088315 15.08864
详细信息
固有亮度:
5
最大亮度:
2.5
卫星平台:
Starlink v1.5
覆盖范围:
全球
运营商:
太空探索技术公司
运营商所在国:
美国
制造商(研发单位):
太空探索技术公司
制造商所在国:
美国
使用方式:
暂无
卫星简介
星链(Starlink)计划是由太空探索技术公司(SpaceX)提出的一个巨型低轨卫星互联网星座项目,计划在2019年至2024年间在太空搭建由约1.2万颗卫星组成的“星链”网络,其中1584颗将部署在地球上空550千米处的近地轨道,并从2020年开始工作。该卫星仍在工作。
2D轨道图
3D轨道图
轨道高度分析图
轨道倾角分析图
轨道综合分析图
查看轨道综合分析图